Location: Antoign�
(47.0844°N, 0.1131°W)
Time: 02:55:54
(UTC+00:00)

Cosmos 1302 Rocket - Pass Details

Date: 03 March 2021
Orbit: 756 x 777 km, 74.0° (Epoch: 12 April)

Event Time Altitude Azimuth Distance (km) Brightness Sun altitude
Rises 18:07:22 0° 196° (SSW) 3,197 7.5 -3.9°
Reaches altitude 10° 18:09:43 10° 195° (SSW) 2,278 6.7 -4.3°
Maximum altitude 18:14:52 78° 110° (ESE) 781 4.0 -5.2°
Drops below altitude 10° 18:20:05 10° 25° (NNE) 2,302 6.2 -6.1°
Sets 18:22:28 0° 24° (NNE) 3,235 7.0 -6.5°
